Regional Weather Roundup
Issued by NWS

Home | Current Version | Previous Version | Graphics & Text | Print | Product List | Glossary On
Versions: 1 2 3 4 5 6 7 8 9 10 11 12 13 14 15 16 17 18 19 20 21 22 23 24 25 26 27 28 29 30 31 32 33 34 35 36 37 38 39 40 41 42 43 44 45 46 47 48 49 50
000
ASUS45 KTFX 142004
RWRMT
MONTANA HOURLY WEATHER ROUNDUP
NATIONAL WEATHER SERVICE GREAT FALLS MT
204 PM MDT SUN SEP 14 2014

NOTE: "FAIR" INDICATES FEW OR NO CLOUDS BELOW 12000 FEET WITH NO
SIGNIFICANT WEATHER AND/OR OBSTRUCTIONS TO VISIBILITY.

* THESE STATIONS ARE NOT UNDER NWS QUALITY CONTROL. THEY DO NOT
   REPORT WEATHER SUCH AS PRECIPITATION OR FOG.

MTZ001>007-043-142100-
WEST OF THE DIVIDE
CITY           SKY/WX    TMP DP  RH WIND       PRES   REMARKS
KALISPELL      SUNNY     64  36  35 CALM      30.08F
MISSOULA       SUNNY     68  34  28 W5        30.07F
BUTTE          SUNNY     66  28  24 N3        30.12S
MULLAN PASS    SUNNY     61  30  31 CALM      30.15R
* LINCOLN      N/A       64  32  30 SW5G10     N/A
* LOOKOUT PASS N/A       66  32  28 S4G10      N/A
* POLSON       N/A       67  41  39 SW3        N/A
* RONAN APT    SUNNY     64  36  35 W5         N/A
* SEELEY LAKE  N/A       66  30  26 S4G9       N/A
* THOMP F APT  SUNNY     72  30  21 S8G14      N/A
$$

MTZ008-052>055-142100-
SOUTHWEST MONTANA
CITY           SKY/WX    TMP DP  RH WIND       PRES   REMARKS
BOZEMAN        SUNNY     63  36  37 CALM      30.10F
DILLON         SUNNY     66  36  33 NE7       30.08F
W YELLOWSTONE  SUNNY     68  23  18 W5        30.14S
* THREE FORKS  SUNNY     63  63 100 N/A        N/A
* BOULDER HILL N/A       58  31  36 VRB10G15    N/A
* MONIDA PASS  N/A       69  18  14 W10G16     N/A
* RAYNOLDS PAS N/A       68  68 100 N6G16      N/A
* WHITEHALL    N/A       63  37  38 S4G9       N/A
* WISE RIVER   N/A       68  31  25 NW4        N/A
$$

MTZ009>010-012-014-046-048-049-054-142100-
EAST SLOPES AND CENTRAL MONTANA
CITY           SKY/WX    TMP DP  RH WIND       PRES   REMARKS
CUT BANK       SUNNY     63  36  37 W5        30.11S
GREAT FALLS    SUNNY     63  37  38 VRB5      30.11S
HELENA         SUNNY     63  36  37 CALM      30.09F
* CONRAD       SUNNY     61  39  44 N/A        N/A
* EAST GLACIER N/A       59  32  36 NE5G10     N/A
* MONARCH      N/A       55  25  31 NW7G14     N/A
* PENDROY      N/A       62  30  30 NW8        N/A
* ROGERS PASS  N/A       60  31  33 SW4G11     N/A
* SAINT MARY   N/A       62  33  34 NE7        N/A
* SWEET GRASS  N/A       58  36  44 SW10       N/A
$$

MTZ011-013-016-021-035-040-045-047-050-051-142100-
NORTH CENTRAL MONTANA
CITY           SKY/WX    TMP DP  RH WIND       PRES   REMARKS
HAVRE          PTCLDY    63  34  34 VRB3      30.11S
LEWISTOWN      SUNNY     59  37  44 NW9       30.12R
* CHESTER      N/A       59  36  42 S3G8       N/A
* DENTON       N/A       59  38  46 NW7G13     N/A
* JUDITH GAP   N/A       56  34  44 N17G24     N/A
* LOMA         N/A       60  36  41 N2         N/A
$$

MTZ017>020-022>027-061-062-142100-
NORTHEAST MONTANA
CITY           SKY/WX    TMP DP  RH WIND       PRES   REMARKS
GLASGOW        CLOUDY    57  36  46 S8        30.14F
GLENDIVE       CLOUDY    54  32  43 E6        30.16F
JORDAN         PTCLDY    57  36  46 S8        30.11F
SIDNEY         PTCLDY    61  28  29 E3        30.17F
WOLF POINT     PTSUNNY   61  30  31 SW5       30.15F
* BEAVER HILL  N/A       54  28  37 S6G12      N/A
* CIRCLE       N/A       54  33  45 NE3G9      N/A
* LINDSAY DVD  N/A       52  29  41 E8         N/A
* NAVAJO       N/A       55  28  35 NW6        N/A
* SACO         N/A       56  39  53 SE9        N/A
$$

MTZ028>042-056>058-142100-
SOUTHCENTRAL AND SOUTHEAST MONTANA
CITY           SKY/WX    TMP DP  RH WIND       PRES   REMARKS
BAKER          PTCLDY    57 N/A N/A E13       30.13F
BILLINGS       SUNNY     59  37  44 E5        30.08F
LIVINGSTON     SUNNY     68  37  32 SW6       30.07F
MILES CITY     PTCLDY    61  34  36 E8        30.09F
* LAUREL APT   SUNNY     61  36  39 N/A        N/A
* ROUNDUP APT  SUNNY     57  37  47 N/A        N/A
* ALZADA       N/A       53  36  53 E10        N/A
* HYSHAM       N/A       60  33  36 W6G12      N/A
* LAME DEER    N/A       56  38  51 N/A        N/A
* REED POINT   N/A       61  37  41 E6         N/A
* ROSCOE HILL  N/A       59  27  29 NE4        N/A
$$

REGIONAL REPORTS...DAKOTAS
CITY           SKY/WX    TMP DP  RH WIND       PRES   REMARKS
WILLISTON      PTSUNNY   57  30  36 N/A       30.16F
DICKINSON      PTSUNNY   54  28  37 VRB3      30.13F
BEACH          N/A       54  28  37 E5        30.15F
CROSBY         PTSUNNY   54  32  43 NW3       30.16S
TIOGA          SUNNY     55  25  31 NW5       30.18F
WATFORD CITY   SUNNY     57  28  33 E5        30.13F
BISMARCK       CLOUDY    57  36  46 VRB6      30.15F
GRAND FORKS    PTSUNNY   57  43  60 NW9G16    30.10F
FARGO          CLOUDY    59  45  60 NW9       30.11F
BUFFALO SD     PTCLDY    59  36  42 E7        30.06F
RAPID CITY     CLOUDY    52  37  57 SE8       30.13F
$$

REGIONAL REPORTS...WYOMING/IDAHO/WASHINGTON
CITY           SKY/WX    TMP DP  RH WIND       PRES   REMARKS
GILLETTE       PTSUNNY   57  39  51 VRB3      30.08S
SHERIDAN       PTCLDY    57  37  47 N8        30.09S
CODY           SUNNY     61  37  41 NE9       30.09S
YELLOWSTONE LA PTCLDY    64  19  18 W13G22    30.21S
SALMON         SUNNY     68  34  28 CALM      30.02F
MULLAN PASS    SUNNY     61  30  31 CALM      30.15S
SAND POINT     SUNNY     70  39  32 NE10      30.04F
SPOKANE        SUNNY     72  36  27 NE8       30.02F

$$



USA.gov is the U.S. government's official web portal to all federal, state and local government web resources and services.